Preview of NWS' New Version of Forecast
This preview is not operational and should not be used for support decisions.

Regional Weather Roundup (RWR)

Issued by National Weather Service (NWS)

                            
000
ASUS45 KABQ 200210
RWRNM 
NEW MEXICO REGIONAL WEATHER ROUNDUP
NATIONAL WEATHER SERVICE ALBUQUERQUE NM
800 PM MDT WED JUN 19 2019

NOTE: "FAIR" MEANS FEW OR NO CLOUDS BELOW 12,000 FEET AGL WITH NO
       SIGNIFICANT WEATHER OR OBSTRUCTIONS TO VISION.

      THIS PRODUCT IS RELEASED AS TWO VERSIONS.  ONE VERSION NEAR
      THE TOP OF THE HOUR CONTAINING PRELIMINARY DATA FROM ALBUQUERQUE
      AND OTHER STATIONS.  A FINAL VERSION WITH ADDITIONAL DATA IS 
      ISSUED ABOUT 10 MINUTES AFTER THE HOUR.
 
NMZ501-503-504-510>518-200300-
NORTHWEST PLATEAU/NORTHCENTRAL MOUNTAINS
  
CITY           SKY/WX    TMP DP  RH WIND       PRES   REMARKS
FARMINGTON     FAIR      84  25  11 W12G20    29.95R                  
LOS ALAMOS       N/A     75  26  16 W7        30.12R                  
SANTA FE       FAIR      79  28  15 NW9       30.03R                  
TAOS           FAIR      74  31  20 W16G25    30.09R                  
ANGEL FIRE       N/A     62  32  33 W5        30.17S                  

$$
NMZ402-403-502-505>509-200300-
WESTCENTRAL MOUNTAINS/SOUTHWEST MOUNTAINS
  
CITY           SKY/WX    TMP DP  RH WIND       PRES   REMARKS
GALLUP         FAIR      80  28  15 NW14      30.08R                  
GRANTS         FAIR      79  26  14 W13G20    30.09S                  
SILVER CITY    FAIR      83  17   9 W14G20    30.05R                  

$$
NMZ407-409-411-412-200300-
SOUTHERN DESERTS
  
CITY           SKY/WX    TMP DP  RH WIND       PRES   REMARKS
DEMING         FAIR      88  15   6 W14       29.96R                  
LAS CRUCES     FAIR      88  17   7 W15G21    29.96R                  
HOLLOMAN AFB   FAIR      91  21   8 S14       29.91R                  
ALAMOGORDO     FAIR      88  19   8 SW13G18   29.91S                  
T OR C         FAIR      89  20   8 N5        29.92R                  

$$
NMZ519>523-200300-
CENTRAL VALLEYS/CENTRAL HIGHLANDS
  
CITY           SKY/WX    TMP DP  RH WIND       PRES   REMARKS
ALBUQUERQUE    FAIR      87  30  13 NW12      29.95S                  
DOUBLE EAGLE     N/A     82  30  15 W13G24    30.00R                  
MORIARTY ARPT  FAIR      80  30  16 NW9       30.04S                  
CLINES CORNERS FAIR      75  29  18 NW17G25   30.09S                  
BELEN          FAIR      85  27  12 W8        29.95S                  
SOCORRO        FAIR      89  22   9 NW9       29.93R                  

$$
NMZ524>526-539-540-200300-
SOUTHCENTRAL MOUNTAINS
  
CITY           SKY/WX    TMP DP  RH WIND       PRES   REMARKS
RUIDOSO        FAIR      77  25  14 SW15      30.12S                  

$$
NMZ527>531-200300-
NORTHEAST HIGHLANDS/NORTHEAST PLAINS
  
CITY           SKY/WX    TMP DP  RH WIND       PRES   REMARKS
LAS VEGAS      FAIR      73  32  22 W12       30.06R                  
RATON          FAIR      74  39  28 SW9       29.96R                  
CLAYTON        FAIR      71  48  43 SE8       29.89S                  

$$
NMZ532>537-200300-
EASTCENTRAL PLAINS
  
CITY           SKY/WX    TMP DP  RH WIND       PRES   REMARKS
SANTA ROSA     FAIR      86  31  13 W12G18    29.88R                  
TUCUMCARI      FAIR      82  48  30 E10       29.80R                  
CANNON AFB     FAIR      83  41  22 SW6       29.86S                  
CLOVIS AIRPORT FAIR      80  49  33 E8        29.86R                  

$$
NMZ028-029-538-200300-
SOUTHEAST PLAINS
  
CITY           SKY/WX    TMP DP  RH WIND       PRES   REMARKS
ROSWELL        FAIR      94  28   9 SW8       29.81S                  
ARTESIA        FAIR      91  36  14 W8        29.83S                  
CARLSBAD       FAIR      93  24   8 W15       29.81R                  


$$